UAL55 KSAN-KLAX

Flight info

Callsign UAL55
Flight time 0h 23m
Altitude 10000
Route CWARD2 SLI
Aircraft B77W/H-SDE1E2E3FGHIJ2J3J4J5M1RWXY/LB1D1

Departure

Time 2026-04-20 04:54
Airport San Diego International Airport (KSAN)

Arrival

Time 2026-04-20 05:18
Airport Los Angeles International Airport (KLAX)
Time Latitude Longitude Altitude Speed Heading
2026-04-20 04:29 32.73261 -117.20542 36 ft 0 kts 167°
2026-04-20 04:34 32.73271 -117.20547 33 ft 2 kts 120°
2026-04-20 04:35 32.73279 -117.20564 30 ft 2 kts 142°
2026-04-20 04:35 32.73293 -117.20572 30 ft 2 kts 116°
2026-04-20 04:35 32.73304 -117.20586 29 ft 2 kts 125°
2026-04-20 04:35 32.73314 -117.20602 28 ft 2 kts 127°
2026-04-20 04:36 32.73333 -117.20634 27 ft 2 kts 120°
2026-04-20 04:36 32.73340 -117.20650 26 ft 1 kts 110°
2026-04-20 04:36 32.73341 -117.20652 26 ft 0 kts 105°
2026-04-20 04:41 32.73351 -117.20565 30 ft 12 kts 44°
2026-04-20 04:41 32.73409 -117.20555 29 ft 13 kts 356°
2026-04-20 04:41 32.73501 -117.20519 26 ft 15 kts 40°
2026-04-20 04:41 32.73572 -117.20425 30 ft 13 kts 52°
2026-04-20 04:42 32.73580 -117.20322 29 ft 13 kts 104°
2026-04-20 04:42 32.73577 -117.20308 29 ft 13 kts 104°
2026-04-20 04:42 32.73567 -117.20265 30 ft 13 kts 107°
2026-04-20 04:43 32.73541 -117.20162 31 ft 13 kts 106°
2026-04-20 04:43 32.73515 -117.20053 31 ft 14 kts 106°
2026-04-20 04:43 32.73486 -117.19932 32 ft 19 kts 106°
2026-04-20 04:43 32.73437 -117.19728 32 ft 28 kts 106°
2026-04-20 04:44 32.73382 -117.19502 32 ft 28 kts 106°
2026-04-20 04:44 32.73327 -117.19275 28 ft 28 kts 106°
2026-04-20 04:44 32.73273 -117.19052 30 ft 28 kts 106°
2026-04-20 04:44 32.73221 -117.18838 31 ft 18 kts 106°
2026-04-20 04:45 32.73190 -117.18712 32 ft 13 kts 106°
2026-04-20 04:45 32.73183 -117.18682 32 ft 0 kts 106°
2026-04-20 04:46 32.73183 -117.18681 32 ft 1 kts 106°
2026-04-20 04:46 32.73178 -117.18661 32 ft 0 kts 106°
2026-04-20 04:47 32.73178 -117.18660 32 ft 0 kts 106°
2026-04-20 04:48 32.73177 -117.18659 32 ft 1 kts 106°
2026-04-20 04:48 32.73170 -117.18628 31 ft 8 kts 106°
2026-04-20 04:48 32.73167 -117.18616 31 ft 4 kts 106°
2026-04-20 04:49 32.73146 -117.18530 29 ft 14 kts 106°
2026-04-20 04:49 32.73116 -117.18408 29 ft 16 kts 105°
2026-04-20 04:49 32.73086 -117.18281 28 ft 17 kts 105°
2026-04-20 04:49 32.73080 -117.18256 28 ft 18 kts 105°
2026-04-20 04:50 32.73075 -117.18235 28 ft 19 kts 105°
2026-04-20 04:50 32.73036 -117.18076 29 ft 21 kts 107°
2026-04-20 04:50 32.72996 -117.17910 28 ft 21 kts 105°
2026-04-20 04:50 32.72956 -117.17746 27 ft 16 kts 105°
2026-04-20 04:51 32.72951 -117.17717 25 ft 0 kts 97°
2026-04-20 04:51 32.72951 -117.17716 25 ft 0 kts 95°
2026-04-20 04:51 32.72951 -117.17715 25 ft 0 kts 95°
2026-04-20 04:51 32.72952 -117.17720 25 ft 0 kts 98°
2026-04-20 04:53 32.72950 -117.17700 24 ft 5 kts 95°
2026-04-20 04:53 32.72957 -117.17658 27 ft 5 kts 73°
2026-04-20 04:53 32.72967 -117.17615 27 ft 6 kts 72°
2026-04-20 04:54 32.73005 -117.17592 27 ft 7 kts 343°
2026-04-20 04:54 32.73036 -117.17647 26 ft 12 kts 292°
2026-04-20 04:54 32.73163 -117.18173 28 ft 134 kts 285°
2026-04-20 04:54 32.73510 -117.19585 893 ft 187 kts 286°
2026-04-20 04:55 32.73883 -117.21090 2621 ft 206 kts 288°
2026-04-20 04:55 32.74580 -117.22713 3164 ft 239 kts 303°
2026-04-20 04:55 32.75623 -117.24451 3790 ft 272 kts 305°
2026-04-20 04:55 32.76740 -117.26310 4959 ft 277 kts 304°
2026-04-20 04:56 32.77837 -117.28184 6255 ft 281 kts 303°
2026-04-20 04:56 32.78962 -117.30135 7450 ft 286 kts 303°
2026-04-20 04:56 32.80086 -117.32080 8668 ft 291 kts 304°
2026-04-20 04:56 32.81335 -117.34072 9540 ft 303 kts 305°
2026-04-20 04:57 32.82627 -117.36061 10012 ft 306 kts 306°
2026-04-20 04:57 32.84008 -117.38180 10022 ft 349 kts 306°
2026-04-20 04:57 32.85549 -117.40551 10018 ft 364 kts 306°
2026-04-20 04:57 32.87091 -117.42924 9989 ft 357 kts 306°
2026-04-20 04:58 32.88585 -117.45230 9981 ft 355 kts 306°
2026-04-20 04:58 32.90096 -117.47570 9983 ft 356 kts 306°
2026-04-20 04:58 32.91603 -117.49911 9986 ft 357 kts 306°
2026-04-20 04:58 32.93118 -117.52267 9988 ft 357 kts 306°
2026-04-20 04:59 32.94631 -117.54623 9983 ft 358 kts 306°
2026-04-20 04:59 32.96137 -117.56970 9988 ft 358 kts 306°
2026-04-20 04:59 32.97657 -117.59341 9979 ft 359 kts 306°
2026-04-20 04:59 32.99161 -117.61688 9983 ft 359 kts 306°
2026-04-20 05:00 33.00683 -117.64065 9990 ft 359 kts 306°
2026-04-20 05:00 33.02185 -117.66412 9986 ft 359 kts 306°
2026-04-20 05:00 33.03705 -117.68787 9982 ft 359 kts 306°
2026-04-20 05:00 33.05224 -117.71164 9984 ft 359 kts 306°
2026-04-20 05:01 33.06765 -117.73470 9970 ft 356 kts 311°
2026-04-20 05:01 33.08589 -117.75493 9994 ft 358 kts 319°
2026-04-20 05:01 33.10535 -117.77367 9998 ft 359 kts 320°
2026-04-20 05:01 33.12470 -117.79214 9994 ft 360 kts 320°
2026-04-20 05:02 33.14410 -117.81127 9993 ft 361 kts 319°
2026-04-20 05:02 33.16340 -117.83077 9983 ft 361 kts 318°
2026-04-20 05:02 33.18239 -117.85004 9988 ft 358 kts 320°
2026-04-20 05:02 33.20381 -117.86500 9980 ft 359 kts 341°
2026-04-20 05:03 33.22207 -117.87019 9994 ft 359 kts 349°
2026-04-20 05:03 33.23154 -117.87231 9994 ft 363 kts 349°
2026-04-20 05:03 33.25659 -117.87804 9990 ft 366 kts 348°
2026-04-20 05:03 33.28127 -117.88386 9983 ft 365 kts 348°
2026-04-20 05:04 33.30694 -117.89010 9988 ft 381 kts 348°
2026-04-20 05:04 33.33252 -117.89642 9977 ft 373 kts 348°
2026-04-20 05:04 33.35747 -117.90263 9962 ft 355 kts 348°
2026-04-20 05:04 33.38081 -117.90845 9944 ft 324 kts 347°
2026-04-20 05:05 33.40232 -117.91496 9937 ft 316 kts 343°
2026-04-20 05:05 33.42305 -117.92253 9897 ft 313 kts 342°
2026-04-20 05:05 33.44379 -117.93036 9692 ft 308 kts 342°
2026-04-20 05:05 33.46421 -117.93802 9442 ft 303 kts 342°
2026-04-20 05:06 33.48410 -117.94542 9138 ft 301 kts 342°
2026-04-20 05:06 33.50418 -117.95281 8805 ft 300 kts 343°
2026-04-20 05:06 33.52413 -117.96012 8466 ft 299 kts 343°
2026-04-20 05:06 33.54369 -117.96726 8156 ft 297 kts 343°
2026-04-20 05:07 33.56357 -117.97451 7845 ft 295 kts 343°
2026-04-20 05:07 33.58326 -117.98181 7541 ft 294 kts 342°
2026-04-20 05:07 33.60288 -117.98963 7117 ft 307 kts 342°
2026-04-20 05:07 33.62261 -117.99768 7015 ft 292 kts 342°
2026-04-20 05:08 33.64190 -118.00555 7013 ft 291 kts 342°
2026-04-20 05:08 33.66088 -118.01327 7009 ft 291 kts 342°
2026-04-20 05:08 33.68025 -118.02113 6952 ft 295 kts 342°
2026-04-20 05:08 33.70022 -118.02921 6966 ft 316 kts 342°
2026-04-20 05:09 33.72063 -118.03748 6818 ft 305 kts 342°
2026-04-20 05:09 33.73998 -118.04532 6677 ft 281 kts 342°
2026-04-20 05:09 33.75782 -118.05255 6454 ft 259 kts 342°
2026-04-20 05:09 33.77435 -118.05925 6087 ft 248 kts 342°
2026-04-20 05:10 33.79021 -118.06566 6095 ft 238 kts 342°
2026-04-20 05:10 33.80615 -118.07210 6101 ft 243 kts 342°
2026-04-20 05:10 33.82212 -118.07856 6110 ft 244 kts 342°
2026-04-20 05:10 33.83832 -118.08512 5933 ft 248 kts 342°
2026-04-20 05:11 33.85455 -118.09169 5832 ft 248 kts 342°
2026-04-20 05:11 33.87067 -118.09823 5784 ft 236 kts 342°
2026-04-20 05:11 33.88589 -118.10441 5529 ft 225 kts 342°
2026-04-20 05:11 33.90084 -118.10844 5169 ft 220 kts 355°
2026-04-20 05:12 33.91540 -118.10944 5029 ft 197 kts 358°
2026-04-20 05:12 33.92974 -118.11040 5042 ft 205 kts 344°
2026-04-20 05:12 33.94136 -118.11936 5093 ft 198 kts 318°
2026-04-20 05:12 33.95196 -118.13026 5071 ft 202 kts 314°
2026-04-20 05:13 33.95860 -118.14467 4922 ft 199 kts 281°
2026-04-20 05:13 33.95939 -118.16122 4481 ft 195 kts 265°
2026-04-20 05:13 33.95826 -118.17707 4083 ft 188 kts 262°
2026-04-20 05:13 33.95676 -118.19247 3711 ft 181 kts 261°
2026-04-20 05:14 33.95527 -118.20701 3372 ft 173 kts 261°
2026-04-20 05:14 33.95385 -118.22095 3017 ft 162 kts 261°
2026-04-20 05:14 33.95250 -118.23410 2570 ft 156 kts 262°
2026-04-20 05:14 33.95124 -118.24647 2348 ft 147 kts 262°
2026-04-20 05:15 33.94995 -118.25911 2156 ft 157 kts 262°
2026-04-20 05:15 33.94862 -118.27216 1947 ft 155 kts 262°
2026-04-20 05:15 33.94732 -118.28495 1730 ft 152 kts 263°
2026-04-20 05:15 33.94603 -118.29758 1533 ft 151 kts 263°
2026-04-20 05:16 33.94477 -118.31001 1336 ft 151 kts 262°
2026-04-20 05:16 33.94349 -118.32254 1138 ft 149 kts 262°
2026-04-20 05:16 33.94224 -118.33484 945 ft 146 kts 263°
2026-04-20 05:16 33.94101 -118.34691 742 ft 144 kts 263°
2026-04-20 05:17 33.93979 -118.35883 547 ft 142 kts 263°
2026-04-20 05:17 33.93861 -118.37046 360 ft 141 kts 263°
2026-04-20 05:17 33.93743 -118.38219 174 ft 140 kts 262°
2026-04-20 05:17 33.93627 -118.39329 131 ft 118 kts 263°
2026-04-20 05:18 33.93561 -118.40049 131 ft 53 kts 271°
2026-04-20 05:18 33.93582 -118.40217 126 ft 24 kts 282°
2026-04-20 05:18 33.93614 -118.40336 125 ft 9 kts 289°
2026-04-20 05:18 33.93626 -118.40408 131 ft 9 kts 272°
2026-04-20 05:19 33.93622 -118.40490 126 ft 10 kts 264°
2026-04-20 05:19 33.93613 -118.40573 127 ft 10 kts 263°
2026-04-20 05:19 33.93605 -118.40655 127 ft 10 kts 263°
2026-04-20 05:19 33.93596 -118.40739 127 ft 10 kts 262°
2026-04-20 05:20 33.93588 -118.40806 131 ft 7 kts 264°
2026-04-20 05:20 33.93587 -118.40822 131 ft 0 kts 263°
2026-04-20 05:20 33.93587 -118.40825 131 ft 1 kts 263°
2026-04-20 05:20 33.93586 -118.40831 131 ft 0 kts 263°
2026-04-20 05:21 33.93586 -118.40834 131 ft 1 kts 263°
2026-04-20 05:21 33.93585 -118.40841 131 ft 0 kts 263°
2026-04-20 05:21 33.93585 -118.40842 131 ft 0 kts 263°
2026-04-20 05:24 33.93591 -118.40877 130 ft 5 kts 302°
2026-04-20 05:25 33.93623 -118.40894 126 ft 6 kts 358°
2026-04-20 05:25 33.93679 -118.40898 128 ft 9 kts 353°
2026-04-20 05:25 33.93744 -118.40907 128 ft 3 kts 353°
2026-04-20 05:25 33.93765 -118.40904 129 ft 4 kts 30°
2026-04-20 05:26 33.93784 -118.40875 127 ft 5 kts 60°
2026-04-20 05:26 33.93796 -118.40802 126 ft 14 kts 82°
2026-04-20 05:26 33.93810 -118.40662 125 ft 17 kts 83°
2026-04-20 05:26 33.93824 -118.40520 126 ft 17 kts 83°
2026-04-20 05:27 33.93841 -118.40377 128 ft 17 kts 82°
2026-04-20 05:27 33.93857 -118.40231 129 ft 17 kts 82°
2026-04-20 05:27 33.93867 -118.40108 126 ft 7 kts 85°
2026-04-20 05:27 33.93877 -118.40057 128 ft 4 kts 51°
2026-04-20 05:28 33.93908 -118.40053 127 ft 5 kts 356°
2026-04-20 05:28 33.93948 -118.40042 129 ft 7 kts 26°
2026-04-20 05:28 33.93995 -118.40013 125 ft 8 kts 27°
2026-04-20 05:28 33.94016 -118.40000 125 ft 2 kts 27°
2026-04-20 05:29 33.94024 -118.39995 125 ft 0 kts 28°